Tracking 19638 objects as of 21-May-2019
HD Live streaming from Space Station
objects crossing your sky now

GLOBALSTAR M048

Track GLOBALSTAR M048 now!
10-day predictions
GLOBALSTAR M048 is classified as:


NORAD ID: 25872
Int'l Code: 1999-041A
Perigee: 1,987.6 km
Apogee: 2,009.7 km
Inclination: 51.9 °
Period: 127.0 minutes
Semi major axis: 8369 km
RCS: 2.5743 m2 (large)
Launch date: July 25, 1999
Source: Globalstar (GLOB)
Launch site: AIR FORCE EASTERN TEST RANGE (AFETR)
aabbcc
Your satellite tracking list
Your tracking list is empty




NASA's NSSDC Master Catalog

Two Line Element Set (TLE):
1 25872U 99041A   19139.48806785 -.00000033 +00000-0 +10106-2 0  9993
2 25872 051.9352 206.9966 0013208 297.1971 160.2670 11.33817847873316
Source of the keplerian elements: AFSPC